Location: Barrialito
(10.1025°N, 66.8154°W)
Time: 16:58:02
(UTC+00:00)

OAO 3 Rocket - Pass Details

Date: 10 September 2024
Orbit: 619 x 669 km, 35.0° (Epoch: 15 October)

Event Time Altitude Azimuth Distance (km) Brightness Sun altitude
Rises 23:38:58 0° 252° (WSW) 2,956 7.7 -17.6°
Reaches altitude 10° 23:41:30 10° 261° (W) 2,036 6.8 -18.2°
Maximum altitude 23:45:50 35° 327° (NNW) 1,024 4.5 -19.3°
Enters shadow 23:49:26 14° 29° (NNE) 1,773 5.2 -20.1°
